EHI
0 0 0 0 0 0 0 0 0 0 0 0 0 0 0 0 0 0 0 0 0 0 0 0 0 1 4 5 4 3 2 1 2 3 2 1 0 0 0 0 0 0 0 0
0 0 0 0 0 0 0 0 0 0 0 0 0 0 0 0 0 0 0 0 1 1 1 0 0 1 2 3 3 1 1 1 2 3 2 1 0 0 0 0 0 0 0 0
0 0 0 0 0 0 0 0 0 0 0 0 0 0 0 0 0 0 0 1 2 3 2 2 1 1 1 1 1 1 0 0 1 2 2 1 1 1 0 0 0 0 0 0
0 0 0 0 0 0 0 0 0 0 0 0 0 0 0 0 0 0 1 3 5 5 4 4 3 2 1 0 0 1 0 0 1 2 2 2 2 2 1 1 1 1 1 1
0 0 0 0 0 0 0 0 0 0 0 0 0 0 0 0 0 0 1 3 6 7 7 5 3 2 1 0 0 0 0 0 1 2 3 3 3 3 3 2 2 2 2 2
0 0 0 0 0 0 0 0 0 0 0 0 0 0 0 0 0 0 1 3 6 9 9 5 2 2 1 0 0 0 0 0 1 2 3 3 3 3 3 3 3 3 1 1
0 0 0 0 0 0 0 0 0 0 0 0 0 0 0 0 0 0 0 2 5 9 9 6 3 2 1 0 1 1 0 0 1 3 4 4 3 3 3 3 3 2 1 1
0 0 0 0 0 0 0 0 0 0 0 0 0 0 0 0 0 0 0 2 6 10 10 7 4 2 1 1 2 3 2 1 2 5 6 5 4 4 4 3 3 2 1 2
0 0 0 0 0 0 0 0 0 0 0 0 0 0 0 0 0 0 2 5 8 10 10 8 4 2 0 1 3 5 4 3 4 6 7 7 6 6 6 4 3 2 2 3
0 0 0 0 0 0 0 0 0 0 0 0 0 0 0 0 0 1 3 5 7 9 10 8 5 3 2 2 4 6 7 6 7 8 8 7 7 8 8 5 3 3 5 5
0 0 0 0 0 0 0 0 0 0 0 0 0 0 0 0 1 2 3 5 7 9 10 10 8 8 8 7 8 9 10 10 10 10 8 7 7 8 8 6 5 5 7 8
0 0 0 0 0 0 0 0 0 0 0 0 0 0 0 2 3 4 5 5 7 10 12 13 12 12 12 12 12 12 11 11 12 10 8 6 5 7 7 7 7 7 8 8
0 0 0 0 0 0 0 0 0 0 0 0 0 0 1 4 6 6 5 6 8 11 13 12 12 11 12 12 13 11 10 10 10 9 7 5 4 4 5 7 7 7 7 8
0 0 0 0 0 0 0 0 0 0 0 0 0 0 1 4 6 5 4 5 8 11 10 9 8 9 10 12 11 9 8 8 7 7 6 4 3 3 4 6 7 7 6 7
0 0 0 0 0 0 0 0 0 0 0 0 0 0 1 3 5 5 5 6 8 10 9 8 8 9 11 12 11 10 9 8 6 5 6 5 4 4 3 4 5 5 4 4
0 0 0 0 0 0 0 0 0 0 0 0 0 0 1 3 4 6 7 7 8 10 11 11 10 10 10 11 12 12 10 9 7 6 6 6 6 5 3 3 3 2 2 2
0 0 0 0 0 0 0 0 0 0 0 0 0 1 2 3 4 6 8 7 9 11 12 12 10 9 8 9 12 13 12 10 8 7 7 6 5 5 5 5 5 3 3 4
0 0 0 0 0 0 0 0 0 0 0 0 0 1 3 4 4 5 6 6 7 9 10 9 7 6 6 8 11 13 14 11 8 7 7 6 4 5 8 9 8 6 6 7
0 0 0 0 0 0 0 0 0 0 0 0 1 2 4 5 6 5 4 5 6 7 7 7 5 3 3 6 8 11 12 10 8 6 5 4 5 7 10 11 11 10 9 9
0 0 0 0 0 0 0 0 0 0 0 1 2 4 5 6 6 5 4 4 6 7 6 4 3 2 1 3 5 6 8 9 8 7 6 5 6 8 11 12 12 12 10 7
0 0 0 0 0 0 0 0 0 0 0 1 2 4 5 5 5 5 5 5 7 7 6 4 3 1 1 2 3 5 7 8 8 8 8 7 7 10 12 12 11 10 9 7
0 0 0 0 0 0 0 0 0 0 0 1 3 4 5 5 6 6 6 6 6 6 5 5 4 3 3 3 4 6 7 9 10 10 10 10 10 11 13 13 11 10 9 9
0 0 0 0 0 0 0 0 0 0 0 1 3 5 6 7 8 7 6 5 5 5 4 5 5 5 4 4 5 5 7 9 12 13 13 13 13 13 13 13 12 11 10 11
0 0 0 0 0 0 0 0 0 0 1 2 4 6 7 8 9 8 7 6 6 5 4 3 4 5 4 3 4 4 5 8 12 13 13 13 13 14 13 12 12 12 12 12
0 0 0 0 0 0 0 1 1 1 2 3 6 7 7 8 8 7 6 6 6 5 4 3 3 3 3 2 2 3 5 7 10 11 11 11 12 13 12 11 10 10 11 12
0 0 0 0 0 0 0 1 2 2 2 4 7 9 7 7 7 6 4 4 4 5 5 4 3 2 1 0 1 4 6 7 9 10 10 10 11 11 11 9 8 8 9 9
Wind_Speed
3 5 3 6 7 5 5 4 2 3 1 3 3 2 3 5 5 6 5 5 6 6 4 4 4 4 4 3 3 3 3 2 3 2 2 1 1 1 1 1 1 2 2 3
5 1 5 5 4 4 4 3 1 1 1 3 1 2 2 5 7 7 8 7 7 5 3 4 4 4 4 4 3 3 3 3 3 2 2 2 2 1 1 1 1 2 2 2
5 4 3 5 4 4 2 5 5 3 2 3 3 4 2 3 4 4 5 5 6 8 7 6 5 5 5 5 5 4 4 4 3 3 2 2 2 2 1 1 1 0 1 2
2 2 3 4 4 6 3 5 5 4 4 1 2 3 6 3 3 5 6 6 7 7 7 6 6 6 6 6 5 4 4 3 3 3 3 4 2 2 1 1 0 0 1 2
3 2 3 3 4 6 4 3 4 4 4 2 2 1 8 1 4 8 8 9 8 8 8 8 8 8 7 6 5 4 4 3 3 3 4 4 2 2 1 1 1 0 0 1
3 2 3 4 1 4 5 7 7 6 5 1 2 2 7 4 7 6 6 8 8 8 8 7 6 5 5 5 4 4 4 3 3 3 4 4 4 3 2 1 1 1 0 0
2 2 1 2 3 3 5 7 4 4 4 5 2 2 9 7 6 7 8 9 9 8 8 7 7 7 6 6 6 5 5 5 4 4 4 4 4 4 4 3 2 2 1 1
3 3 3 2 5 5 4 8 8 5 5 4 1 4 8 5 3 3 3 5 6 7 7 7 8 8 8 8 7 7 6 5 5 5 4 4 4 3 2 3 2 3 2 2
6 5 3 1 2 8 5 3 6 7 2 0 4 6 9 3 2 1 2 3 5 6 7 7 7 8 8 8 8 8 8 6 5 5 4 4 4 4 3 2 2 2 2 2
8 3 2 1 4 4 5 8 6 6 5 2 4 4 5 5 3 1 2 3 4 4 5 6 6 7 7 7 7 6 7 7 5 5 5 4 4 4 3 2 2 2 2 2
5 5 1 2 2 4 4 4 6 5 5 6 2 7 6 6 5 5 5 4 5 5 5 5 5 5 5 5 5 5 5 5 5 5 4 4 3 3 3 3 3 3 2 1
4 6 1 3 3 1 4 6 7 6 3 4 4 8 5 4 3 4 3 2 3 3 4 4 4 5 5 5 4 5 4 5 5 4 4 4 3 3 3 3 3 3 2 2
6 7 4 4 4 2 2 3 4 6 6 5 5 8 3 1 0 1 2 2 2 3 3 3 4 4 4 5 5 4 4 4 4 4 4 4 3 3 3 3 3 3 3 2
7 6 7 9 8 4 2 2 4 6 5 4 7 7 5 2 2 2 2 2 3 4 4 4 4 4 4 4 4 5 4 3 3 3 3 3 3 3 3 3 2 2 2 2
6 4 2 3 2 3 3 4 5 5 7 8 8 7 8 6 6 5 4 4 4 4 4 5 5 4 4 4 4 4 3 3 4 4 3 4 3 2 2 2 2 2 2 2
4 5 2 1 1 1 1 3 4 4 4 5 3 6 6 2 1 2 3 5 5 5 5 5 4 4 4 5 5 4 4 4 4 4 4 3 2 2 3 2 2 2 2 2
2 5 4 2 2 2 3 5 5 4 4 6 7 7 2 2 3 4 4 5 5 5 5 5 5 5 5 5 5 6 5 4 4 4 3 2 2 2 2 2 2 2 2 2
6 5 4 3 2 4 8 3 3 3 3 3 4 3 3 4 3 2 3 5 4 4 4 4 4 4 3 3 4 4 4 5 5 4 3 3 3 3 2 2 3 2 2 2
5 8 5 4 3 4 6 2 3 3 3 2 2 2 2 2 3 2 1 2 4 4 4 3 3 3 3 3 4 4 4 4 4 4 4 4 4 4 3 3 3 2 2 2
5 5 6 5 5 7 8 3 1 3 3 3 1 2 3 4 2 4 2 1 2 2 2 3 3 3 3 2 3 5 4 4 5 5 5 4 4 4 4 4 4 2 2 2
3 3 4 5 4 7 5 4 1 4 6 3 2 3 4 4 4 3 1 2 2 1 2 3 4 3 3 3 4 4 3 4 5 3 3 3 3 4 4 3 3 2 3 2
5 5 4 4 4 8 3 2 4 5 3 1 1 1 2 2 0 1 1 2 2 2 2 3 3 2 2 3 4 3 4 4 3 3 3 3 4 4 3 3 3 3 3 3
3 6 6 7 7 4 2 2 2 2 1 1 1 1 2 2 1 1 1 1 1 2 2 2 3 2 1 2 4 4 4 3 2 3 3 3 4 4 3 4 4 3 3 3
1 2 3 1 3 3 3 1 2 1 1 1 1 2 3 3 2 2 1 1 1 1 1 1 2 2 2 2 3 4 2 2 3 3 3 3 3 3 3 3 3 3 3 4
3 2 2 1 3 3 3 2 2 1 2 3 3 2 2 3 2 2 1 1 1 0 1 1 1 2 3 2 3 2 2 3 3 3 3 3 3 3 3 4 4 5 5 5
3 5 5 6 6 4 4 3 1 1 1 0 1 2 1 1 1 1 1 1 1 0 0 0 1 1 2 2 3 3 2 3 3 3 3 3 3 3 3 3 3 4 5 6
Wind_Direction
52 84 162 193 181 164 157 155 199 237 204 144 188 233 211 187 187 198 205 205 207 213 204 180 178 171 155 152 150 151 146 142 120 104 105 98 85 61 55 75 98 109 113 112
50 249 217 165 154 129 137 145 213 305 98 139 171 278 236 200 204 204 206 209 206 203 188 182 178 174 169 169 169 165 167 159 154 144 134 128 120 107 103 60 70 98 115 124
172 226 172 145 151 146 174 183 199 180 80 61 65 331 273 234 213 210 212 208 201 196 193 190 185 184 176 183 184 183 181 172 170 154 116 95 74 57 53 51 47 48 127 133
206 228 157 150 173 158 222 212 177 140 106 332 94 287 284 241 235 225 219 209 206 203 193 190 187 187 190 196 186 178 178 173 167 152 145 148 153 164 195 179 166 73 126 148
228 173 144 180 204 167 197 108 110 115 113 49 19 171 287 282 242 239 223 213 208 200 193 194 194 195 195 190 182 176 170 169 161 158 162 160 167 181 166 131 122 67 37 154
233 230 184 194 167 142 126 74 60 53 69 7 252 171 281 236 222 235 219 209 204 198 195 196 192 184 186 179 177 170 167 178 172 168 170 170 176 178 169 176 182 213 245 237
335 316 274 146 92 55 100 93 48 13 17 257 267 200 252 254 231 221 217 206 199 193 190 188 181 182 187 184 182 176 175 189 185 179 182 182 184 181 188 194 198 204 214 225
160 269 249 186 162 165 158 136 152 182 209 268 309 238 258 275 265 226 201 185 179 184 188 191 191 189 191 190 185 182 186 196 191 190 195 188 183 183 196 199 197 204 216 225
169 235 280 245 142 133 136 147 150 127 138 327 284 286 301 316 4 64 121 147 179 188 189 191 190 189 189 189 190 188 188 195 196 196 189 188 190 189 193 192 200 213 221 222
152 190 282 288 75 43 129 139 104 114 139 218 293 282 263 287 280 265 205 196 199 184 186 187 185 189 190 188 186 181 184 192 194 190 192 197 197 196 188 177 213 240 238 229
132 143 310 54 144 175 104 93 102 109 143 150 216 268 235 228 222 214 220 207 193 184 185 182 182 180 172 170 173 177 178 178 183 187 188 186 188 188 179 193 215 234 243 220
130 120 168 259 270 182 145 156 145 144 186 159 165 262 281 230 220 203 205 190 178 176 173 168 164 157 156 162 167 173 175 177 182 177 171 175 177 175 186 201 219 222 220 220
133 114 95 353 342 10 93 128 132 121 115 145 164 259 315 23 191 201 181 167 155 142 135 138 141 155 168 170 169 172 175 179 174 166 172 175 180 186 203 206 208 208 217 226
114 110 155 187 208 193 179 162 150 126 139 183 213 243 293 290 247 230 198 173 157 155 154 154 160 170 172 170 170 170 172 168 161 158 169 185 196 201 206 205 201 200 201 213
103 123 167 206 216 180 193 190 177 176 180 182 218 221 243 234 222 214 186 165 157 164 168 175 179 178 169 165 167 163 163 162 162 162 186 205 200 189 196 210 212 210 209 219
80 124 121 10 348 154 239 229 195 197 184 199 211 250 249 238 178 171 177 172 180 186 186 187 181 171 174 179 176 169 170 165 159 175 195 194 181 184 200 214 214 216 226 236
93 120 118 225 310 52 267 233 203 201 199 178 201 229 212 176 196 202 195 189 193 193 186 181 185 185 187 192 183 177 175 154 157 175 181 181 180 197 213 210 198 211 218 207
132 113 123 135 102 212 243 253 179 178 235 220 214 217 198 194 193 203 187 183 190 189 182 187 186 184 186 180 174 165 150 153 165 179 184 181 188 205 203 192 200 208 206 209
148 135 122 129 166 262 286 264 163 167 261 260 209 217 182 136 66 354 261 190 195 187 179 183 182 176 166 168 167 150 152 164 175 192 198 198 194 193 191 200 211 206 200 218
71 102 117 131 154 218 238 268 259 126 259 276 207 184 155 120 131 252 250 181 168 148 148 149 145 132 144 170 155 151 170 180 200 209 209 205 197 194 201 210 211 200 198 216
73 73 121 148 187 250 254 295 87 162 235 277 222 189 162 176 208 226 173 153 155 141 145 139 135 148 172 161 148 160 177 208 219 214 205 203 203 205 206 206 205 197 194 204
162 148 164 143 173 245 296 67 161 216 256 242 216 197 183 209 184 79 122 143 132 112 122 136 141 163 173 153 152 169 208 224 208 192 201 213 214 211 202 197 207 200 194 203
182 182 177 181 206 247 284 227 240 201 208 227 194 205 160 142 118 57 81 130 129 136 141 140 152 167 169 169 172 195 221 209 188 192 208 217 215 212 201 197 202 203 204 214
274 136 133 233 276 285 294 308 330 338 215 207 147 131 125 126 140 126 129 122 108 121 120 128 144 164 204 205 207 218 225 191 181 198 214 217 212 216 212 207 206 208 215 224
222 160 130 240 272 325 324 318 307 350 35 51 50 71 118 123 141 163 169 185 176 106 89 124 167 205 234 229 229 228 200 176 189 210 216 216 214 215 218 220 219 215 220 218
206 178 171 214 219 194 245 274 297 63 22 77 60 5 1 130 170 180 189 199 160 155 124 121 241 247 256 246 247 241 207 185 191 211 220 219 218 219 224 227 244 238 234 236